Dewpoint
59 59 59 60 60 59 58 57 56 55 55 54 53 54 55 55 54 53 54 52 52 51 50 50 49 50 50 50 49 49 50 48 48 48 49 50 48 48 48 49 50 49 50 50 51 50 50 50 50 51 50 47 45 44 44 45 46 48 48 46 43 42 40 40 38 39 39 45 43 39 40 38 36 34 32 36 37 38 42 44 46 43 41 41 41
59 59 59 60 59 59 58 56 56 56 55 55 53 54 54 55 54 53 53 51 51 51 48 48 49 48 48 49 50 51 50 49 50 51 48 46 47 50 49 48 48 49 50 49 49 52 50 48 48 49 48 48 48 41 43 42 43 46 47 47 47 47 43 42 41 39 37 43 40 42 41 43 36 36 36 38 39 41 37 41 44 40 41 43 39
59 58 58 59 59 59 59 56 56 56 55 55 54 54 54 54 53 53 53 50 52 50 48 49 48 47 48 48 48 49 49 50 51 48 48 49 50 50 49 48 50 48 47 49 49 49 49 49 49 50 51 48 47 47 44 42 44 45 46 46 46 47 46 42 43 42 40 41 43 39 41 46 40 36 40 42 42 41 40 38 39 41 41 44 42
59 58 59 59 59 60 59 58 56 55 55 54 53 54 54 54 54 54 52 50 52 51 49 48 49 47 46 47 47 48 51 51 49 49 50 51 49 48 49 49 48 47 48 48 48 48 48 46 46 48 49 48 47 46 46 46 44 45 46 48 47 46 49 49 45 46 43 42 44 37 42 44 46 42 38 39 41 39 39 40 42 41 41 41 42
60 60 59 59 58 58 58 59 58 57 56 56 55 54 53 53 54 52 51 49 52 51 48 49 49 47 47 46 47 48 49 48 48 48 50 51 49 48 48 48 49 48 47 47 51 48 48 46 48 49 49 45 46 47 44 47 45 45 45 46 46 47 49 48 48 49 46 43 44 40 43 46 43 41 37 37 39 40 42 43 43 44 45 45 44
59 58 59 58 57 58 58 57 57 59 56 56 56 54 52 51 52 53 50 48 51 50 46 49 49 48 47 46 47 47 47 48 47 48 49 51 49 48 48 50 50 49 47 48 48 48 47 47 49 50 50 46 47 49 46 48 47 45 45 45 48 48 46 47 48 48 47 47 45 43 45 44 43 43 39 40 42 44 44 44 44 44 44 43 43
58 58 58 57 57 57 57 57 57 58 58 57 57 55 52 51 51 51 51 50 51 49 46 48 49 48 48 47 47 47 48 49 48 48 48 50 48 50 49 48 51 49 48 48 49 49 50 49 49 50 50 49 49 49 50 49 48 47 47 46 46 47 47 47 46 46 47 46 45 46 45 45 43 41 41 43 43 44 44 43 43 44 45 42 42
59 59 58 58 56 56 57 58 58 59 58 58 58 55 55 52 51 52 51 51 50 50 45 49 48 48 46 48 47 47 47 49 48 47 47 50 49 51 49 50 50 51 49 50 50 50 51 51 50 49 51 51 51 50 50 49 49 47 47 46 46 46 45 46 45 46 44 44 44 43 45 44 45 44 45 44 44 43 44 43 41 41 41 42 42
57 57 57 57 58 58 58 58 58 57 57 58 59 58 57 57 57 56 56 56 52 50 50 49 48 48 48 47 48 49 48 49 50 50 48 50 50 50 52 50 50 51 50 52 54 55 54 53 53 52 55 54 52 51 51 50 49 48 47 47 47 47 46 46 46 43 45 46 46 46 45 43 43 43 43 43 42 41 42 42 40 41 41 41 41
57 56 56 56 57 58 59 59 58 58 58 58 58 58 58 57 55 55 56 55 56 55 51 51 47 45 48 49 50 50 50 50 51 49 49 51 52 50 54 52 53 52 52 54 54 54 54 54 55 56 51 49 46 44 43 45 49 50 49 49 49 47 47 46 46 46 46 46 45 44 44 43 43 43 43 43 43 42 41 40 38 40 40 38 39
55 55 56 55 57 58 58 58 58 58 58 58 58 58 57 57 55 55 56 56 56 55 56 53 49 47 48 49 51 51 52 51 46 43 46 48 52 52 53 53 53 54 54 54 54 54 53 54 53 55 54 49 45 41 40 40 40 40 41 44 48 50 49 47 47 48 46 45 45 44 44 44 44 44 43 43 43 41 39 39 39 39 37 36 35
55 55 55 56 57 57 57 58 57 57 58 57 57 57 57 56 55 56 55 55 55 56 55 54 54 52 49 48 52 54 54 47 44 44 44 44 49 54 54 54 54 55 55 54 54 54 54 53 53 53 53 54 48 45 43 40 38 38 37 37 37 39 44 49 48 47 47 47 45 44 44 44 43 43 43 41 40 41 40 40 39 37 37 36 35
37 39 39 40 48 54 56 57 57 57 57 57 57 56 56 55 55 54 53 54 53 54 55 55 55 55 52 49 50 55 54 44 43 44 43 42 45 52 56 55 55 55 55 55 55 54 53 53 52 52 54 56 54 50 47 44 40 39 39 39 38 36 35 37 41 46 47 47 46 45 45 45 43 42 44 42 42 40 39 38 37 37 36 35 35
37 37 38 38 38 38 43 49 53 54 56 56 55 54 54 54 55 54 53 53 53 53 53 54 55 55 55 54 53 54 54 47 44 44 43 42 43 48 54 55 56 56 55 55 55 55 54 53 53 53 53 54 54 52 50 47 45 44 45 44 39 37 37 36 36 38 43 46 46 46 46 45 44 43 42 41 40 38 36 35 36 34 34 33 34
37 37 37 37 37 36 37 38 40 43 49 54 54 54 53 52 54 53 52 52 52 52 53 53 54 54 54 54 53 54 55 50 46 44 43 42 40 45 51 53 55 55 55 55 54 54 54 54 53 53 53 53 55 53 52 49 47 46 46 45 40 41 44 42 42 46 48 48 47 46 45 44 41 38 38 38 37 37 36 34 34 33 35 36 34
36 37 37 37 36 36 36 35 36 39 42 43 45 46 51 52 52 53 52 52 52 52 52 53 54 55 55 54 54 53 54 49 46 44 44 43 42 47 50 51 52 54 53 54 55 55 54 54 54 53 53 53 51 47 49 49 47 47 46 46 43 38 36 36 36 38 45 46 44 41 39 39 37 36 36 36 37 36 37 36 36 36 34 33 32
35 36 37 37 36 36 35 35 35 37 40 42 43 44 45 50 53 53 52 51 52 53 53 53 54 54 54 53 53 52 54 49 44 44 44 42 43 48 49 50 51 52 53 54 55 55 55 55 54 53 54 54 49 44 45 46 48 47 46 46 43 38 35 36 36 35 35 36 36 35 35 35 35 35 36 37 36 36 35 34 33 34 33 32 34
35 36 36 36 35 35 35 35 36 38 39 40 41 42 43 44 46 52 52 52 52 53 54 54 54 54 54 54 54 53 53 50 44 42 43 42 45 50 50 50 50 50 52 54 54 54 54 54 55 55 54 54 45 43 43 47 49 47 47 46 42 39 38 39 36 35 36 35 35 35 34 35 35 34 34 34 35 38 33 31 33 34 34 34 33
36 35 35 35 34 35 36 37 37 39 38 38 40 41 42 42 42 43 45 49 52 53 54 54 54 54 55 54 54 54 52 51 45 44 44 44 44 48 51 51 50 50 51 52 52 48 46 46 49 52 53 51 43 43 42 47 49 48 47 46 43 41 40 39 37 36 36 35 35 35 33 35 37 35 37 36 35 38 37 36 36 35 34 34 33
36 36 36 36 36 37 37 38 38 38 37 38 39 39 40 38 38 39 38 39 41 44 49 52 52 53 54 54 53 53 52 51 49 44 43 43 42 48 51 51 51 51 51 52 49 46 44 42 43 40 44 45 42 43 42 44 50 49 48 46 44 43 42 40 39 37 38 38 37 36 36 37 35 35 37 35 36 38 35 38 38 37 34 32 33
37 37 37 36 37 37 36 37 37 38 38 38 38 38 38 38 38 38 37 39 40 42 43 46 51 51 51 52 52 51 53 52 50 42 42 42 41 42 50 52 51 51 51 51 50 46 42 41 41 39 40 40 41 41 42 42 44 49 49 47 45 45 42 41 41 40 39 39 39 38 38 39 38 37 37 37 36 35 36 37 37 35 35 33 31
37 37 37 36 37 37 37 37 38 39 38 37 36 37 37 37 39 40 41 42 43 43 43 43 45 48 49 49 51 52 53 51 52 45 41 41 40 40 48 52 52 51 50 50 49 46 43 42 40 38 37 38 38 38 38 37 38 42 42 40 39 39 42 41 41 40 39 38 37 36 36 36 37 36 38 39 38 38 36 35 37 34 35 34 32
37 36 36 36 37 37 37 36 37 38 37 37 37 36 36 36 37 37 37 37 36 37 38 39 41 44 47 49 50 51 52 51 48 49 43 41 40 39 42 48 44 51 51 49 49 44 42 41 39 37 36 36 36 36 35 35 36 36 37 38 38 38 39 39 38 38 37 37 36 35 33 34 33 35 37 37 37 37 37 36 36 34 34 35 34
35 35 35 35 35 36 35 36 35 35 36 37 37 35 35 36 36 36 36 36 37 38 39 40 41 42 44 47 49 51 52 52 48 46 46 40 40 40 39 41 43 48 50 50 46 42 41 40 38 35 35 35 34 33 33 33 31 32 33 34 36 38 40 38 37 37 35 33 33 33 34 32 33 33 33 35 35 35 35 34 33 33 33 33 33
35 35 35 35 35 35 35 35 35 35 35 35 34 35 34 35 34 34 34 33 33 34 36 38 39 40 42 46 48 50 52 52 50 46 43 41 39 39 39 39 40 40 45 48 42 42 39 36 35 34 33 33 32 32 31 32 31 31 32 34 37 35 36 35 35 36 34 32 34 32 31 32 32 33 33 33 33 33 33 34 34 34 34 33 32
35 35 35 35 34 34 34 34 35 35 35 34 35 35 35 35 35 34 33 33 32 33 33 33 34 36 37 39 43 47 50 50 47 42 42 40 39 38 38 39 40 40 41 45 39 37 35 34 34 33 33 32 32 30 28 30 32 32 34 37 36 37 36 35 34 33 32 31 31 31 31 32 31 32 34 33 32 32 31 31 31 31 32 31 31
35 35 34 34 34 35 34 34 35 35 34 35 35 35 34 34 34 34 34 33 34 35 35 35 35 35 36 38 39 41 45 48 45 42 43 42 43 41 40 40 39 39 40 38 37 36 35 35 34 34 34 33 32 31 31 32 31 33 35 34 33 31 31 30 29 30 32 30 30 31 31 31 32 32 31 31 31 31 31 31 30 30 30 30 29
35 34 34 34 35 34 34 33 34 34 34 34 33 33 34 35 34 34 33 34 34 34 33 33 34 34 35 37 40 42 43 45 45 44 43 43 41 40 39 38 39 40 37 36 35 35 34 34 34 34 34 30 29 29 29 30 30 32 33 30 28 29 32 33 34 32 32 31 31 30 30 31 31 31 31 31 29 30 30 31 30 30 30 29 29
35 34 34 34 34 34 35 34 34 34 33 33 34 34 34 34 34 34 34 34 34 34 34 34 34 34 35 37 40 42 42 43 45 42 42 41 40 40 39 39 39 39 37 34 34 34 34 33 32 30 28 29 29 29 29 29 30 33 35 32 30 30 30 30 30 28 29 29 28 29 30 29 29 29 29 29 30 29 28 29 29 30 29 30 29
34 34 35 35 35 35 35 35 35 34 34 34 34 34 33 35 34 34 33 34 34 34 34 34 35 34 36 39 42 42 42 44 40 39 40 38 38 37 38 37 36 36 35 34 36 34 33 32 31 30 29 28 29 29 30 30 31 31 31 32 32 31 30 28 26 25 28 28 29 30 28 28 27 29 29 28 27 27 29 31 28 28 28 28 29
34 35 35 35 35 35 35 35 35 35 35 35 35 34 34 34 34 34 34 34 34 34 34 34 35 35 36 39 40 36 37 39 39 38 39 39 39 38 36 36 35 34 34 31 32 32 32 32 31 30 30 29 29 30 31 32 32 30 29 29 28 29 28 25 26 29 29 29 29 29 29 28 28 28 28 27 27 27 29 28 28 28 29 29 29
35 35 35 35 35 35 35 35 35 35 35 35 35 35 34 33 33 34 34 34 34 34 34 34 35 35 35 36 39 37 36 38 38 39 39 39 38 36 35 35 34 34 34 34 33 32 32 31 31 31 31 30 30 31 32 33 32 30 29 28 28 28 28 27 28 29 29 29 28 28 28 29 29 27 28 28 27 28 27 27 27 28 29 30 31
35 35 35 35 35 35 35 35 35 35 35 35 35 35 34 34 33 33 33 34 34 34 34 34 34 35 35 36 37 37 37 36 37 37 37 36 35 35 35 35 35 34 34 33 33 33 33 33 33 32 32 31 31 32 32 32 31 30 29 29 28 28 26 27 29 28 29 28 29 27 29 29 28 27 27 27 27 25 26 26 28 29 30 30 31
36 36 35 36 36 36 36 36 36 36 36 36 36 35 35 35 34 34 33 33 34 34 34 34 35 35 35 36 37 37 37 37 37 37 36 35 35 35 34 34 34 34 34 34 32 31 33 35 36 36 36 33 33 32 31 31 30 29 30 29 28 27 27 29 28 29 29 28 28 27 27 27 26 25 25 25 25 25 26 28 30 30 30 30 31
37 36 34 35 36 36 36 37 37 37 37 37 37 36 36 35 34 34 34 33 33 33 33 33 34 34 35 35 36 37 37 36 36 36 36 35 35 34 34 35 34 33 35 36 36 37 36 36 36 37 37 33 33 32 31 31 30 30 30 30 29 28 28 29 29 28 28 27 27 27 26 25 25 25 25 24 24 25 28 29 30 30 30 30 31
37 37 37 37 36 37 38 38 38 37 36 34 34 34 34 34 34 34 34 34 33 33 32 33 33 34 34 35 35 35 36 36 36 35 35 35 35 34 34 33 32 32 33 34 36 36 38 39 39 38 36 35 32 31 30 29 29 29 28 27 27 28 28 28 28 28 26 27 26 26 26 24 25 25 24 25 27 28 27 28 29 29 30 30 30
36 36 36 35 36 36 36 35 34 32 32 30 32 34 34 35 34 34 34 33 32 32 32 32 33 33 34 34 34 35 35 36 36 35 35 34 35 35 33 34 34 36 36 37 37 38 37 37 37 38 34 31 30 29 29 29 29 28 28 26 27 28 28 29 28 28 26 27 26 26 28 27 27 27 27 27 26 26 27 28 28 29 30 30 30
36 35 36 36 36 36 36 35 33 32 31 31 33 34 34 34 34 33 32 32 32 31 31 32 33 34 34 35 37 33 32 34 35 35 35 35 33 33 34 35 36 36 36 38 37 37 37 38 36 36 31 30 30 29 29 29 28 28 27 27 28 29 30 29 29 28 27 27 28 27 28 27 27 27 28 26 25 25 26 28 28 30 31 31 31
34 34 33 33 33 34 34 32 32 31 32 33 34 33 33 33 33 33 33 33 33 33 33 33 34 35 36 32 32 34 33 31 31 33 32 31 31 31 32 33 33 33 35 37 37 37 38 37 35 33 30 30 30 29 29 28 28 27 27 26 26 27 27 27 28 26 27 28 27 26 26 24 24 24 25 25 24 26 28 29 30 31 31 31 31
33 33 34 33 34 34 33 33 33 34 33 34 33 33 33 33 33 33 33 33 33 34 34 34 35 35 34 33 32 33 33 31 30 30 29 31 31 32 32 32 32 32 33 34 35 35 37 37 32 31 30 29 29 29 29 29 29 28 27 26 24 24 25 27 28 28 28 27 26 25 25 23 23 24 24 25 26 27 29 30 30 31 31 31 31
33 33 34 34 33 34 35 35 35 35 34 34 35 35 35 34 34 34 33 33 34 34 34 35 34 34 34 33 34 34 32 31 31 31 29 30 30 30 31 31 31 32 32 31 34 34 33 32 31 31 30 30 29 29 28 28 28 27 26 27 28 29 29 28 28 27 27 27 26 25 23 24 24 24 24 26 30 30 29 30 31 31 31 31 31
34 34 35 34 34 35 35 35 35 35 35 34 34 34 34 34 33 32 32 33 33 33 33 33 33 33 33 34 34 34 33 32 32 32 33 33 33 33 33 33 34 33 33 32 31 31 31 31 31 30 29 29 29 29 29 28 27 27 29 29 29 29 29 29 27 27 27 26 24 24 23 24 25 27 28 31 27 27 28 30 31 31 31 31 31
36 35 34 34 34 34 35 36 36 36 35 34 33 33 33 33 33 33 32 32 32 31 31 31 32 33 33 33 33 33 34 34 33 33 33 34 34 34 34 33 34 34 34 33 31 31 30 29 29 28 28 28 28 27 27 27 28 28 28 28 28 28 28 27 27 27 25 25 24 25 24 24 25 24 25 26 26 29 30 31 31 31 31 31 31
34 33 33 33 33 34 33 34 33 34 34 33 33 33 33 34 33 32 32 31 30 30 30 30 30 32 32 33 33 33 33 33 33 34 34 33 33 32 32 33 33 33 32 31 30 30 29 28 28 28 29 28 28 29 28 28 28 28 28 28 28 28 27 26 25 24 23 23 23 24 24 24 25 24 27 28 29 30 31 31 31 31 31 31 31
33 33 33 33 33 33 33 33 33 33 33 33 34 33 33 34 34 32 30 30 30 29 29 31 32 32 32 32 33 33 33 33 33 33 33 33 32 32 32 32 31 31 30 30 30 30 29 28 28 28 28 29 29 29 29 29 29 29 29 28 27 26 24 23 21 22 22 23 23 24 24 25 24 25 28 30 30 30 31 30 30 30 30 30 31
32 33 33 33 32 32 33 33 32 32 33 32 32 32 32 32 34 34 31 31 30 30 30 30 32 31 32 33 33 33 33 33 33 33 32 32 32 31 31 30 30 30 30 29 29 30 29 29 28 28 28 29 29 29 28 28 27 27 26 25 24 23 21 22 23 24 24 22 22 23 24 25 24 27 29 28 30 31 31 31 29 29 30 30 31
33 33 33 33 33 32 32 32 32 32 32 32 32 31 31 32 33 33 32 31 31 31 32 32 32 31 32 33 33 33 33 33 33 33 33 33 33 32 31 31 30 30 29 30 30 29 29 29 29 29 29 29 29 28 28 27 25 24 24 24 24 23 22 21 23 21 21 23 23 22 22 23 24 25 29 30 30 31 31 31 30 30 30 30 30
32 32 32 33 33 32 32 32 32 32 31 32 32 32 32 32 32 32 33 32 31 31 31 31 31 31 32 33 34 34 34 33 33 33 33 33 33 33 32 32 31 31 30 30 29 29 29 29 29 29 29 29 29 28 27 26 25 24 24 24 24 24 24 24 23 23 22 20 22 23 23 23 23 24 28 29 30 31 31 30 30 30 30 30 31
32 32 32 32 32 32 32 32 32 32 32 32 32 32 32 32 32 32 32 32 32 32 32 32 31 31 32 32 32 33 33 33 33 32 33 33 33 33 33 32 32 31 30 30 29 29 29 30 29 29 29 29 28 27 26 26 25 25 24 24 24 24 25 25 25 25 25 24 23 22 22 23 23 24 26 28 29 30 31 31 30 30 30 31 31
33 32 33 33 33 33 32 32 32 32 31 31 31 32 32 32 32 32 31 32 32 32 32 32 32 32 32 31 31 31 31 31 31 31 31 32 32 32 32 32 31 30 29 29 29 29 29 29 29 28 27 27 26 25 25 24 24 24 24 24 24 24 24 25 25 25 25 24 23 21 22 22 23 23 25 26 27 28 28 29 30 30 30 29 28
32 32 32 32 32 32 32 32 32 32 32 32 32 32 32 32 33 33 32 31 31 32 32 32 32 32 32 32 32 32 32 32 32 32 33 33 32 31 31 31 31 30 30 30 29 29 28 28 27 27 26 26 25 24 23 22 21 21 23 24 24 24 24 25 25 25 25 26 26 25 24 24 24 24 26 26 27 27 28 29 30 30 30 29 28